[[{"header":{"parameterUnit":"m.s-1","parameterCategory":1,"la1":30.2991,"la2":30.254,"lo1":-89.0895,"lo2":-89.0444,"dy":0.0017,"dx":0.0017,"nx":28,"ny":28,"refTime":"2024-07-12T21:00:00:Z","depth":0,"parameterNumber":2,"parameterNumberName":"U-component_of_WINDS"},"data":[0,0,0,0,0,0,0,0,0,0,0,0,0,0,0,0,0,0,0,0,0,0,0,0,0,0,0,0,0,0,0,0,0,0,0,0,0,0,0,0,0,0,0,0,0,0,0,0,0,0,0,0,0,0,0,0,0,0,0.9059,0.906,0,0.9138,0.9139,0.914,0.9111,0.9109,0.9107,0.9105,0.9193,0.9197,0.9201,0,0,0,0,0,0,0,0,0,0,0,0,0,0.8888,0.8891,0.9059,0.906,0.9061,0.9138,0.9139,0.9141,0.9111,0.9109,0.9107,0.9104,0.9192,0.9197,0.9202,0,0,0,0,0,0,0,0,0,0,0,0,0,0.8965,0.8893,0.9059,0.9056,0.9056,0.9138,0.9139,0.9141,0.9111,0.9109,0.9106,0.9103,0.919,0.9196,0.9202,0.9294,0,0,0.9221,0.9223,0,0,0,0,0,0,0,0,0.896,0.8971,0.9055,0.9056,0.9057,0.9112,0.9111,0.9193,0.9112,0.9091,0.9105,0.9102,0.9169,0.9176,0.9198,0.9299,0.9302,0.9221,0.9225,0.9228,0.9229,0,0,0,0,0,0,0,0.8955,0.8967,0.9091,0.9056,0.9057,0.9052,0.906,0.9127,0.9144,0.9092,0.909,0.91,0.9169,0.9192,0.9199,0.9304,0.9221,0.9227,0.923,0.9233,0.9484,0.9487,0,0,0,0,0,0,0.8949,0.8963,0.9088,0.9093,0.9001,0.9057,0.9066,0.9097,0.9143,0.9148,0.9102,0.9098,0.9183,0.9192,0.9202,0.9313,0.9228,0.9233,0.9237,0.9481,0.9485,0.9488,0,0,0,0,0,0,0.8945,0.896,0.9085,0.9028,0.9043,0.9063,0.9098,0.91,0.9123,0.9151,0.9154,0.9122,0.9181,0.9194,0.9271,0.9316,0.9236,0.9241,0.9478,0.9482,0.9487,0.9536,0,0,0,0,0,0,0.894,0.8959,0.8993,0.9029,0.9046,0.9151,0.9101,0.9104,0.9133,0.9128,0.917,0.9175,0.918,0.9262,0.9277,0.9323,0.9246,0.9474,0.948,0.9485,0.9531,0.9542,0.9552,0,0,0,0,0,0.8934,0.9005,0.8995,0.901,0.9089,0.9154,0.9164,0.9166,0.9136,0.9172,0.9189,0.9173,0.9308,0.927,0.9287,0.9335,0.9471,0.9478,0.9485,0.9526,0.954,0.9551,0,0,0,0,0,0,0.8977,0.901,0.8999,0.9083,0.9115,0.9148,0.9193,0.9181,0.9224,0.9219,0.9222,0.9232,0.9311,0.9331,0.9288,0.9427,0.9385,0.9396,0.9411,0.9424,0.9435,0.9429,0.9251,0,0,0,0,0,0.8996,0.9044,0.9071,0.9143,0.9159,0.9173,0.9202,0.92,0.9235,0.9249,0.9273,0.9309,0.9359,0.9393,0.9441,0.9533,0.9542,0.9574,0.9585,0.9593,0.9603,0.9653,0.9668,0.9511,0.9511,0.951,0,0,0.9036,0.906,0.9091,0.9152,0.9177,0.9228,0.9185,0.9242,0.928,0.9259,0.9333,0.9351,0.9392,0.9477,0.9515,0.9496,0.9648,0.9602,0.9608,0.9613,0.9661,0.9676,0.9689,0.9515,0.9514,0.9514,0,0,0.9136,0.9158,0.922,0.9246,0.9283,0.9292,0.9307,0.9341,0.9352,0.9425,0.941,0.9457,0.9544,0.9573,0.96,0.9709,0.9697,0.9725,0.978,0.9829,0.9841,0.9852,0.9892,0.9906,0.9734,0.9734,0.9734,0,0.9182,0.9256,0.9254,0.9311,0.9339,0.9319,0.9383,0.9409,0.9461,0.9482,0.9458,0.9565,0.9592,0.9683,0.9709,0.9731,0.9749,0.9721,0.9839,0.985,0.986,0.9898,0.9913,0.9737,0.9737,0.9736,0.9736,0,0.9312,0.9364,0.941,0.9458,0.9491,0.9551,0.956,0.9594,0.9589,0.9601,0.9676,0.9706,0.976,0.9781,0.9779,0.9873,0.9859,0.9837,0.9796,0.9879,0.9914,0.9929,0.9742,0.9741,0.974,0.9739,0,0,0.9442,0.9487,0.9504,0.9525,0.9564,0.9606,0.9666,0.9715,0.9745,0.9781,0.9832,0.9905,0.9885,0.9915,0.9915,0.9958,1.0043,0.9931,0.9932,0.9951,1.0149,1.0166,1.0183,1.0034,1.0037,1.0039,1.0146,0,0.9545,0.9647,0.9647,0.9743,0.9791,0.9772,0.9825,0.9855,0.9868,0.9912,0.9926,0.9978,0.9947,0.9965,1.0006,1.0024,1.0083,1.0016,1.0084,1.0086,1.0075,1.0201,1.022,1.0319,1.016,1.0162,1.0164,0,0.9679,0.9718,0.9817,0.9849,0.9869,0.9916,0.9961,1.0004,1.0038,1.0044,1.0077,1.007,1.0133,1.0088,1.0175,1.0129,1.0156,1.0169,1.0173,1.0181,1.0131,1.0213,1.0351,1.0366,1.0186,1.0184,1.0183,0,0.9765,0.9842,0.9911,0.993,0.9969,1.0002,1.002,1.0051,1.0081,1.0122,1.0141,1.0189,1.0216,1.0254,1.0261,1.0228,1.0348,1.0304,1.0357,1.0357,1.0384,1.0383,1.0529,1.04,1.04,1.04,1.0399,0,0.9881,0.9943,0.995,0.9993,1.0062,1.0062,1.0131,1.0146,1.0174,1.0221,1.0208,1.0253,1.0259,1.0305,1.0311,1.0383,1.0395,1.0403,1.0404,1.0404,1.0404,1.0424,1.0417,1.0404,1.0403,1.0402,1.0401,0,0.9989,0.9996,1.0071,1.01,1.0109,1.0159,1.0185,1.0227,1.0237,1.0296,1.031,1.0327,1.0381,1.0391,1.0456,1.046,1.0545,1.0539,1.0533,1.0532,1.0584,1.058,1.075,1.0773,1.0628,1.0629,1.063,0,1.0063,1.011,1.0144,1.0173,1.0192,1.024,1.0269,1.027,1.0302,1.0345,1.0382,1.0434,1.0475,1.0563,1.0582,1.0631,1.0627,1.0683,1.0635,1.0634,1.0629,1.0626,1.0631,1.0693,1.0695,1.0696,1.0697,0,1.0194,1.0195,1.0237,1.0281,1.0316,1.0351,1.0384,1.0409,1.0415,1.0451,1.0505,1.0537,1.0602,1.0654,1.0703,1.0723,1.0712,1.0712,1.0727,1.0729,1.0723,1.0727,1.0559,1.0708,1.0707,1.0706,1.0706,1.0705,1.0288,1.0329,1.0358,1.0406,1.043,1.0461,1.0502,1.0516,1.056,1.0611,1.0609,1.0669,1.0702,1.0766,1.0789,1.0837,1.0819,1.0841,1.0846,1.0852,1.0857,1.0714,1.0846,1.0845,1.0845,1.0845,1.0845,0,1.0419,1.0436,1.048,1.0525,1.0563,1.0546,1.0582,1.0615,1.0666,1.0697,1.0738,1.08,1.085,1.0873,1.0923,1.0957,1.0953,1.097,1.0968,1.0973,1.087,1.0852,1.0972,1.0972,1.0972,1.0972,1.0972,1.0972,1.0491,1.0559,1.0563,1.0644,1.0661,1.0718,1.074,1.0769,1.0793,1.0862,1.0903,1.0916,1.0944,1.0996,1.1042,1.1047,1.1067,1.1087,1.109,1.0993,1.098,1.0968,1.0952,1.1091,1.1091,1.1189,1.119,1.1191]},{"header":{"parameterUnit":"m.s-1","parameterCategory":1,"la1":30.2991,"la2":30.254,"lo1":-89.0895,"lo2":-89.0444,"dy":0.0017,"dx":0.0017,"nx":28,"ny":28,"refTime":"2024-07-12T21:00:00:Z","depth":0,"parameterNumber":3,"parameterNumberName":"V-component_of_WINDS"},"data":[0,0,0,0,0,0,0,0,0,0,0,0,0,0,0,0,0,0,0,0,0,0,0,0,0,0,0,0,0,0,0,0,0,0,0,0,0,0,0,0,0,0,0,0,0,0,0,0,0,0,0,0,0,0,0,0,0,0,2.407,2.407,0,2.4035,2.4035,2.4034,2.4021,2.4021,2.4021,2.4021,2.3982,2.3981,2.398,0,0,0,0,0,0,0,0,0,0,0,0,0,2.4122,2.4121,2.407,2.407,2.4069,2.4035,2.4035,2.4034,2.4021,2.4021,2.4021,2.4021,2.3983,2.3981,2.398,0,0,0,0,0,0,0,0,0,0,0,0,0,2.4094,2.4121,2.407,2.4059,2.4057,2.4035,2.4034,2.4034,2.4021,2.4021,2.4021,2.4021,2.3983,2.3981,2.398,2.3966,0,0,2.3974,2.3974,0,0,0,0,0,0,0,0,2.4096,2.4092,2.4061,2.4059,2.4058,2.4033,2.4038,2.4011,2.4021,2.4035,2.4021,2.4021,2.3999,2.3996,2.3989,2.3964,2.3962,2.3974,2.3973,2.3972,2.3972,0,0,0,0,0,0,0,2.4098,2.4094,2.4056,2.406,2.4058,2.4054,2.405,2.4033,2.4016,2.4033,2.4032,2.4029,2.3998,2.399,2.3988,2.3961,2.3974,2.3973,2.3972,2.3971,2.3922,2.3921,0,0,0,0,0,0,2.4102,2.4095,2.4057,2.4055,2.4078,2.4053,2.4049,2.404,2.4016,2.4013,2.4028,2.4028,2.3993,2.399,2.3986,2.3967,2.3972,2.3971,2.397,2.3922,2.3922,2.3921,0,0,0,0,0,0,2.4103,2.4099,2.4059,2.4075,2.4069,2.4052,2.4043,2.404,2.4032,2.4012,2.4009,2.4024,2.3993,2.3989,2.3971,2.3966,2.397,2.3969,2.3922,2.3922,2.3922,2.393,0,0,0,0,0,0,2.4105,2.4099,2.4095,2.4075,2.4069,2.4045,2.4042,2.4039,2.403,2.4029,2.4007,2.4004,2.3993,2.3973,2.3969,2.3963,2.3967,2.3923,2.3922,2.3922,2.393,2.393,2.3929,0,0,0,0,0,2.4107,2.4098,2.4094,2.409,2.4063,2.4045,2.4041,2.4029,2.4029,2.4024,2.4011,2.4005,2.3967,2.3972,2.3967,2.396,2.3923,2.3922,2.3922,2.393,2.393,2.3929,0,0,0,0,0,0,2.4116,2.4095,2.4091,2.4076,2.4062,2.4042,2.4035,2.4029,2.4015,2.4014,2.3999,2.3995,2.3978,2.3967,2.3973,2.3945,2.3944,2.3943,2.3952,2.3952,2.3952,2.3954,2.3966,0,0,0,0,0,2.4117,2.4105,2.4087,2.4075,2.4069,2.4053,2.4045,2.4037,2.4022,2.4016,2.4002,2.3986,2.3971,2.3961,2.3945,2.3928,2.3923,2.3921,2.3921,2.3921,2.392,2.3908,2.3907,2.3919,2.3919,2.3919,0,0,2.4118,2.4105,2.4098,2.4077,2.4065,2.4052,2.4048,2.4035,2.4025,2.4013,2.3996,2.3985,2.3966,2.3948,2.394,2.3939,2.3915,2.392,2.392,2.3919,2.3908,2.3906,2.3905,2.3919,2.3919,2.3919,0,0,2.4112,2.4102,2.4091,2.4079,2.4062,2.4052,2.4049,2.403,2.4023,2.4005,2.3996,2.3983,2.3957,2.3944,2.3934,2.3923,2.3916,2.3918,2.3917,2.3906,2.3905,2.3904,2.3899,2.3898,2.3917,2.3917,2.3917,0,2.4115,2.4096,2.4085,2.4072,2.4063,2.4053,2.404,2.4029,2.4008,2.4001,2.4,2.3967,2.3954,2.3932,2.393,2.3922,2.3917,2.392,2.3906,2.3905,2.3904,2.3899,2.3897,2.3917,2.3917,2.3917,2.3917,0,2.41,2.4087,2.408,2.406,2.405,2.4037,2.4023,2.4013,2.4006,2.3995,2.3976,2.396,2.3941,2.3936,2.3928,2.3912,2.3912,2.391,2.3909,2.3904,2.3898,2.3897,2.3917,2.3917,2.3917,2.3917,0,0,2.41,2.4074,2.4072,2.4062,2.4042,2.4031,2.4018,2.4,2.3991,2.3977,2.3964,2.3942,2.3939,2.3927,2.3918,2.3909,2.39,2.3907,2.3906,2.3905,2.388,2.3882,2.388,2.3895,2.3895,2.3894,2.3881,0,2.4092,2.4068,2.4057,2.4038,2.4025,2.4015,2.4002,2.3988,2.3977,2.3964,2.3951,2.3936,2.3933,2.3926,2.3917,2.3903,2.3894,2.3904,2.3882,2.3881,2.3886,2.3877,2.3879,2.3867,2.3879,2.3879,2.3878,0,2.4079,2.4065,2.4044,2.4025,2.4019,2.4009,2.3991,2.3978,2.3961,2.3954,2.3941,2.3932,2.3916,2.3917,2.3893,2.39,2.389,2.3882,2.3881,2.3878,2.3879,2.3873,2.3863,2.3861,2.3875,2.3876,2.3876,0,2.408,2.4056,2.404,2.4032,2.401,2.4002,2.3992,2.3976,2.3965,2.3949,2.3942,2.3924,2.3914,2.39,2.3886,2.3888,2.3863,2.3863,2.3855,2.3855,2.385,2.385,2.3838,2.3845,2.3845,2.3845,2.3845,0,2.4071,2.4059,2.404,2.4031,2.4016,2.4003,2.3988,2.3977,2.3962,2.3949,2.3939,2.3927,2.3909,2.3894,2.3883,2.3864,2.386,2.3852,2.3849,2.3853,2.3854,2.3846,2.3846,2.3844,2.3845,2.3845,2.3845,0,2.407,2.4058,2.404,2.402,2.4014,2.4004,2.3986,2.3976,2.3965,2.3948,2.3943,2.3925,2.3907,2.3892,2.3867,2.386,2.384,2.3837,2.3846,2.3844,2.3837,2.3838,2.3818,2.3814,2.3825,2.3825,2.3825,0,2.4065,2.4056,2.4035,2.4026,2.4016,2.4002,2.3991,2.3977,2.3967,2.3946,2.3937,2.3918,2.3903,2.3873,2.3857,2.3838,2.3834,2.3829,2.3831,2.3834,2.3833,2.3833,2.3831,2.3828,2.3828,2.3828,2.3828,0,2.4058,2.4052,2.4038,2.4021,2.4009,2.3995,2.398,2.3973,2.3956,2.3944,2.3926,2.3914,2.3889,2.387,2.3849,2.3837,2.3829,2.3828,2.3824,2.3828,2.3833,2.3829,2.3844,2.3828,2.3828,2.3828,2.3828,2.3828,2.4054,2.4044,2.4028,2.4012,2.4,2.3986,2.3975,2.3963,2.3948,2.3927,2.3919,2.39,2.3882,2.3853,2.3841,2.3825,2.3824,2.382,2.3818,2.3817,2.3817,2.3836,2.3821,2.3821,2.3821,2.3821,2.3821,0,2.4045,2.4034,2.402,2.4,2.3987,2.3982,2.3965,2.3954,2.3938,2.3922,2.3907,2.3885,2.3866,2.3848,2.3828,2.3818,2.3814,2.3813,2.3813,2.381,2.382,2.3824,2.3817,2.3817,2.3817,2.3817,2.3817,2.3817,2.4039,2.4022,2.4014,2.3991,2.3979,2.3961,2.3952,2.3939,2.3926,2.3902,2.3887,2.3875,2.3858,2.3836,2.3818,2.3813,2.3806,2.3806,2.38,2.3809,2.381,2.381,2.3814,2.3805,2.3805,2.3791,2.3791,2.3791]}]]